Regional Weather Roundup
Issued by NWS

Home | Current Version | Previous Version | Graphics & Text | Print | Product List | Glossary On
Versions: 1 2 3 4 5 6 7 8 9 10 11 12 13 14 15 16 17 18 19 20 21 22 23 24 25 26 27 28 29 30 31 32 33 34 35 36 37 38 39 40 41 42 43 44 45 46 47 48 49 50
000
ASUS43 KLMK 280410
RWRKY
KENTUCKY REGIONAL WEATHER ROUNDUP
NATIONAL WEATHER SERVICE LOUISVILLE KY
1200 AM EDT FRI JUL 28 2017

NOTE "FAIR" INDICATES FEW OR NO CLOUDS BELOW 12,000 FEET
WITH NO SIGNIFICANT WEATHER AND/OR OBSTRUCTIONS TO VISIBILITY.

KYZ001>023-026-027-061>063-070>075-280500-
WESTERN AND SOUTH CENTRAL KENTUCKY

CITY           SKY/WX    TMP DP  RH WIND       PRES   REMARKS
PADUCAH        CLOUDY    79  75  87 SW3       29.86F
HENDERSON      CLOUDY    76  74  93 SW6       29.87S
OWENSBORO      CLOUDY    74  73  97 S5        29.87S
HOPKINSVILLE   CLOUDY    74  73  97 S6        29.89F
BOWLING GREEN  CLOUDY    77  73  87 SW3       29.90F
GLASGOW        CLOUDY    73  73 100 W3        29.91R
$$

KYZ024-025-028>034-038-045-046-053-280500-
NORTH CENTRAL KENTUCKY

CITY           SKY/WX    TMP DP  RH WIND       PRES   REMARKS
LOUISVILLE/SDF LGT RAIN  79  72  79 SW6       29.85F
LOUISVILLE/LOU CLOUDY    79  75  87 S5        29.86F
FORT KNOX      CLOUDY    73  72  98 SW7       29.85F
$$

KYZ035>037-039>044-047>052-055>060-089>105-280500-
NORTHEAST KENTUCKY

CITY           SKY/WX    TMP DP  RH WIND       PRES   REMARKS
LEXINGTON      MOCLDY    73  70  90 S5        29.89F
COVINGTON      CLOUDY    74  74 100 CALM      29.87F
FRANKFORT      CLOUDY    74  70  87 CALM      29.87F
$$

KYZ054-064>069-076>088-106>120-280500-
SOUTHEAST KENTUCKY

CITY           SKY/WX    TMP DP  RH WIND       PRES   REMARKS
JACKSON        FOG       70  68  93 CALM      29.93F VSB 3/4
LONDON         CLOUDY    70  68  93 S5        29.93F
SOMERSET       CLOUDY    70  70 100 CALM      29.93S
MIDDLESBORO    DRIZZLE   71  71 100 CALM      29.97S
MONTICELLO     CLOUDY    73  71  93 NE8       29.94F
$$





USA.gov is the U.S. government's official web portal to all federal, state and local government web resources and services.